DW3560 Weather Reports


time (UTC)temp
F
wind
direction
speed
knots
gust
knots
rain 1hr
in
rain 24hr
in
rain mn
in
humidity
%
barometer
mb
20260902235002 70 288 2.6 11.3 0.00 0.00 0.00 65 1017.6
20260902234502 70 299 2.6 11.3 0.00 0.00 0.00 65 1017.6
20260902234023 70 305 2.6 11.3 0.00 0.00 0.00 66 1017.6
20260902233502 70 283 2.6 7.8 0.00 0.00 0.00 66 1017.6
20260902233002 70 283 2.6 8.7 0.00 0.00 0.00 67 1017.6
20260902232502 70 274 3.5 9.6 0.00 0.00 0.00 68 1017.6
20260902232002 70 277 2.6 9.6 0.00 0.00 0.00 68 1017.6
20260902231502 70 288 2.6 8.7 0.00 0.00 0.00 69 1017.6
20260902231023 70 277 2.6 8.7 0.00 0.00 0.00 69 1017.6
20260902230502 71 299 1.7 7.0 0.00 0.00 0.00 68 1017.6
20260902230002 71 290 1.7 8.7 0.00 0.00 0.00 69 1017.6
20260902225502 70 312 2.6 9.6 0.00 0.00 0.00 70 1017.6
20260902225002 70 318 2.6 9.6 0.00 0.00 0.00 69 1017.6
20260902224502 70 270 2.6 7.0 0.00 0.00 0.00 70 1017.6
20260902224003 70 276 2.6 7.0 0.00 0.00 0.00 70 1017.6
20260902223502 70 295 2.6 7.0 0.00 0.00 0.00 70 1017.6
20260902223023 70 275 2.6 7.0 0.00 0.00 0.00 70 1017.6
20260902222502 70 278 1.7 7.0 0.00 0.00 0.00 70 1017.6
20260902222002 70 310 1.7 7.8 0.00 0.00 0.00 72 1017.6
20260902221502 69 279 2.6 9.6 0.00 0.00 0.00 72 1017.6
20260902221002 69 288 2.6 9.6 0.00 0.00 0.00 73 1017.6
20260902220502 69 312 1.7 7.8 0.00 0.00 0.00 73 1017.6
20260902220002 69 293 1.7 7.0 0.00 0.00 0.00 73 1017.6
20260902215502 69 278 2.6 6.1 0.00 0.00 0.00 73 1017.6
20260902215002 69 296 2.6 6.1 0.00 0.00 0.00 73 1017.6
20260902214523 69 299 1.7 6.1 0.00 0.00 0.00 74 1017.6
20260902214002 69 295 1.7 7.8 0.00 0.00 0.00 74 1017.6
20260902213502 69 304 1.7 7.8 0.00 0.00 0.00 74 1017.6
20260902213002 69 295 1.7 4.3 0.00 0.00 0.00 74 1017.6
20260902212523 68 294 1.7 8.7 0.00 0.00 0.00 75 1017.6
20260902212023 68 284 2.6 8.7 0.00 0.00 0.00 74 1017.6
20260902211502 69 267 2.6 8.7 0.00 0.00 0.00 74 1017.6
20260902211002 68 255 3.5 9.6 0.00 0.00 0.00 73 1017.6
20260902210502 69 270 2.6 9.6 0.00 0.00 0.00 74 1017.6
20260902210023 69 310 2.6 7.8 0.00 0.00 0.00 73 1017.6
20260902205502 69 319 2.6 7.0 0.00 0.00 0.00 73 1017.6
20260902205002 69 299 1.7 7.0 0.00 0.00 0.00 73 1017.6
20260902204502 70 268 1.7 7.0 0.00 0.00 0.00 72 1017.6
20260902204023 70 260 1.7 8.7 0.00 0.00 0.00 72 1017.6
20260902203523 70 279 1.7 8.7 0.00 0.00 0.00 73 1016.4
20260902203002 70 313 1.7 7.8 0.00 0.00 0.00 72 1016.4
20260902202502 70 316 1.7 7.8 0.00 0.00 0.00 72 1016.4
20260902202023 70 316 1.7 7.0 0.00 0.00 0.00 71 1016.4
20260902201502 71 327 1.7 10.4 0.00 0.00 0.00 70 1016.4
20260902201023 71 316 1.7 10.4 0.00 0.00 0.00 70 1016.4
20260902200502 71 303 2.6 8.7 0.00 0.00 0.00 69 1016.4
20260902200002 71 298 2.6 8.7 0.00 0.00 0.00 69 1016.4
20260902195503 71 276 2.6 8.7 0.00 0.00 0.00 69 1016.4
20260902195025 70 268 2.6 8.7 0.00 0.00 0.00 70 1016.4
20260902194523 70 263 2.6 7.8 0.00 0.00 0.00 71 1016.4
20260902194002 70 253 2.6 8.7 0.00 0.00 0.00 71 1016.4
20260902193502 70 248 3.5 8.7 0.00 0.00 0.00 70 1016.4
20260902193002 70 250 2.6 8.7 0.00 0.00 0.00 71 1016.4
20260902192502 69 251 2.6 7.8 0.00 0.00 0.00 72 1016.4
20260902192003 69 240 3.5 7.8 0.00 0.00 0.00 71 1016.4
20260902191502 69 225 3.5 8.7 0.00 0.00 0.00 70 1016.4
20260902191002 69 230 3.5 10.4 0.00 0.00 0.00 71 1016.4
20260902190502 68 248 3.5 10.4 0.00 0.00 0.00 72 1016.4
20260902190003 68 240 3.5 8.7 0.00 0.00 0.00 72 1016.4
20260902185502 68 238 2.6 7.0 0.00 0.00 0.00 73 1016.4
20260902185002 68 248 2.6 7.8 0.00 0.00 0.00 73 1016.4
20260902184502 67 253 2.6 7.8 0.00 0.00 0.00 74 1016.4
20260902184002 67 254 2.6 6.1 0.00 0.00 0.00 73 1016.4
20260902183502 67 268 1.7 6.1 0.00 0.00 0.00 73 1016.4
20260902183002 67 281 1.7 6.1 0.00 0.00 0.00 74 1016.4
20260902182502 67 262 1.7 6.1 0.00 0.00 0.00 73 1016.4
20260902182002 67 245 2.6 6.1 0.00 0.00 0.00 73 1016.4
20260902181502 67 232 1.7 5.2 0.00 0.00 0.00 72 1016.4
20260902181002 66 225 1.7 7.8 0.00 0.00 0.00 72 1016.4
20260902180502 66 220 2.6 7.8 0.00 0.00 0.00 73 1016.4
20260902180005 66 211 2.6 7.8 0.00 0.00 0.00 73 1016.4
20260902175523 66 215 2.6 7.8 0.00 0.00 0.00 73 1016.4
20260902175002 65 204 1.7 7.0 0.00 0.00 0.00 74 1016.4
20260902174523 65 191 1.7 7.0 0.00 0.00 0.00 74 1016.4
20260902174002 65 193 2.6 6.1 0.00 0.00 0.00 73 1016.4
20260902173523 65 192 2.6 7.8 0.00 0.00 0.00 74 1016.4
20260902173002 65 202 2.6 7.8 0.00 0.00 0.00 73 1016.4
20260902172502 65 197 3.5 7.0 0.00 0.00 0.00 73 1016.4
20260902172002 65 181 2.6 7.8 0.00 0.00 0.00 73 1016.4
20260902171502 65 184 3.5 7.8 0.00 0.00 0.00 73 1016.4
20260902171002 65 195 3.5 7.0 0.00 0.00 0.00 72 1016.4
20260902170502 66 189 3.5 7.0 0.00 0.00 0.00 71 1016.4
20260902170002 66 193 3.5 7.0 0.00 0.00 0.00 71 1016.4
20260902165502 66 204 2.6 7.0 0.00 0.00 0.00 71 1016.4
20260902165002 65 196 2.6 8.7 0.00 0.00 0.00 71 1016.4
20260902164502 65 195 2.6 8.7 0.00 0.00 0.00 71 1016.4
20260902164002 65 189 2.6 7.8 0.00 0.00 0.00 72 1016.4
20260902163523 65 180 2.6 7.8 0.00 0.00 0.00 72 1016.4
20260902163002 65 185 3.5 8.7 0.00 0.00 0.00 72 1016.4
20260902162502 65 195 3.5 8.7 0.00 0.00 0.00 72 1016.4
20260902162002 64 193 2.6 7.0 0.00 0.00 0.00 71 1016.4
20260902161502 64 179 3.5 7.0 0.00 0.00 0.00 72 1016.4
20260902161002 64 169 3.5 7.0 0.00 0.00 0.00 72 1016.4
20260902160502 64 170 3.5 8.7 0.00 0.00 0.00 72 1016.4
20260902160003 64 173 3.5 8.7 0.00 0.00 0.00 71 1016.4
20260902155502 63 168 3.5 7.8 0.00 0.00 0.00 71 1016.4
20260902155002 63 162 2.6 7.8 0.00 0.00 0.00 72 1016.4
20260902154502 62 160 1.7 6.1 0.00 0.00 0.00 73 1016.4
20260902154002 62 177 2.6 7.0 0.00 0.00 0.00 73 1016.4
20260902153502 61 191 2.6 7.0 0.00 0.00 0.00 74 1016.4
20260902153002 61 187 2.6 7.8 0.00 0.00 0.00 75 1016.4
20260902152502 60 183 1.7 7.8 0.00 0.00 0.00 76 1016.4
20260902152002 60 191 0.9 3.5 0.00 0.00 0.00 77 1016.4
20260902151502 60 199 1.7 5.2 0.00 0.00 0.00 77 1016.4
20260902151002 60 196 1.7 5.2 0.00 0.00 0.00 78 1016.4
20260902150502 60 188 1.7 5.2 0.00 0.00 0.00 78 1016.4
20260902150023 60 178 1.7 6.1 0.00 0.00 0.00 79 1016.4
20260902145502 59 170 2.6 6.1 0.00 0.00 0.00 79 1016.4
20260902145002 59 165 2.6 5.2 0.00 0.00 0.00 80 1016.4
20260902144523 59 163 1.7 6.1 0.00 0.00 0.00 81 1016.4
20260902144002 58 171 1.7 6.1 0.00 0.00 0.00 81 1016.4
20260902143502 58 172 1.7 5.2 0.00 0.00 0.00 81 1016.4
20260902143002 58 157 1.7 4.3 0.00 0.00 0.00 81 1016.4
20260902142502 58 150 1.7 7.8 0.00 0.00 0.00 81 1016.4
20260902142003 58 148 2.6 7.8 0.00 0.00 0.00 81 1016.4
20260902141502 57 144 1.7 5.2 0.00 0.00 0.00 81 1016.4
20260902141002 57 148 1.7 5.2 0.00 0.00 0.00 80 1016.4
20260902140502 57 156 0.9 3.5 0.00 0.00 0.00 81 1016.4
20260902140002 57 151 0.9 4.3 0.00 0.00 0.00 81 1016.4
20260902135502 57 139 1.7 4.3 0.00 0.00 0.00 81 1016.4
20260902135002 57 138 1.7 4.3 0.00 0.00 0.00 81 1016.4
20260902134502 57 144 1.7 3.5 0.00 0.00 0.00 81 1016.4
20260902134002 57 141 1.7 4.3 0.00 0.00 0.00 81 1016.4
20260902133502 57 138 1.7 4.3 0.00 0.00 0.00 81 1016.4
20260902133003 57 144 1.7 4.3 0.00 0.00 0.00 81 1016.4
20260902132523 57 152 1.7 4.3 0.00 0.00 0.00 80 1016.4
20260902132002 57 161 0.9 3.5 0.00 0.00 0.00 80 1016.4
20260902131502 57 154 0.9 4.3 0.00 0.00 0.00 81 1016.4
20260902131002 57 150 0.9 4.3 0.00 0.00 0.00 81 1016.4
20260902130502 58 154 0.9 6.1 0.00 0.00 0.00 81 1016.4
20260902130003 58 155 0.9 6.1 0.00 0.00 0.00 81 1016.4
20260902125502 58 153 0.9 3.5 0.00 0.00 0.00 81 1016.4
20260902125003 58 152 0.9 3.5 0.00 0.00 0.00 81 1016.4
20260902124502 58 154 0.9 4.3 0.00 0.00 0.00 81 1016.4
20260902124003 58 158 0.9 4.3 0.00 0.00 0.00 82 1016.4
20260902123503 58 157 0.9 4.3 0.00 0.00 0.00 82 1016.4
20260902123003 58 154 0.9 3.5 0.00 0.00 0.00 82 1016.4
20260902122524 57 155 0.9 3.5 0.00 0.00 0.00 82 1016.4
20260902122002 57 162 0.9 3.5 0.00 0.00 0.00 83 1016.4
20260902121502 57 170 0.9 4.3 0.00 0.00 0.00 83 1016.4
20260902121003 57 162 0.9 4.3 0.00 0.00 0.00 84 1016.4
20260902120502 57 150 0.9 4.3 0.00 0.00 0.00 85 1016.4
20260902120003 57 140 0.9 6.1 0.00 0.00 0.00 85 1016.4
20260902115503 57 142 0.9 6.1 0.00 0.00 0.00 85 1016.4
20260902115003 57 147 0.9 3.5 0.00 0.00 0.00 85 1016.4
20260902114502 57 149 0.9 3.5 0.00 0.00 0.00 86 1016.4
20260902114002 57 149 0.9 3.5 0.00 0.00 0.00 86 1016.4
20260902113503 56 150 0.9 2.6 0.00 0.00 0.00 86 1016.4
20260902113003 56 148 0.9 3.5 0.00 0.00 0.00 86 1016.4
20260902112502 56 146 0.9 3.5 0.00 0.00 0.00 86 1016.4
20260902112002 56 143 0.0 2.6 0.00 0.00 0.00 87 1016.4
20260902111503 56 144 0.0 2.6 0.00 0.00 0.00 86 1016.4
20260902111002 56 144 0.0 2.6 0.00 0.00 0.00 87 1016.4
20260902110502 56 144 0.0 1.7 0.00 0.00 0.00 87 1016.4
20260902110003 56 144 0.0 0.9 0.00 0.00 0.00 87 1014.4
20260902105503 56 146 0.0 2.6 0.00 0.00 0.00 87 1014.4
20260902105002 56 150 0.0 2.6 0.00 0.00 0.00 87 1014.4
20260902104524 56 157 0.0 1.7 0.00 0.00 0.00 87 1014.4
20260902104002 56 170 0.0 2.6 0.00 0.00 0.00 87 1014.4
20260902103503 56 178 0.0 2.6 0.00 0.00 0.00 88 1014.4
20260902103002 56 185 0.0 0.9 0.00 0.00 0.00 88 1014.4
20260902102502 56 187 0.0 0.9 0.00 0.00 0.00 88 1014.4
20260902102002 56 189 0.0 0.9 0.00 0.00 0.00 88 1014.4
20260902101503 56 197 0.0 1.7 0.00 0.00 0.00 88 1014.4
20260902101003 56 204 0.0 1.7 0.00 0.00 0.00 88 1014.4
20260902100502 56 211 0.0 0.9 0.00 0.00 0.00 89 1014.4
20260902100024 56 211 0.0 0.9 0.00 0.00 0.00 89 1014.4
20260902095503 56 211 0.0 0.9 0.00 0.00 0.00 89 1014.4
20260902095023 57 0 0.0 0.0 0.00 0.00 0.00 89 1014.4
20260902094502 57 0 0.0 0.0 0.00 0.00 0.00 89 1014.4
20260902094023 57 0 0.0 0.0 0.00 0.00 0.00 89 1014.4
20260902093502 57 0 0.0 0.0 0.00 0.00 0.00 89 1014.4
20260902093002 57 0 0.0 0.0 0.00 0.00 0.00 89 1014.4
20260902092503 57 0 0.0 0.0 0.00 0.00 0.00 89 1014.4
20260902092023 57 0 0.0 0.0 0.00 0.00 0.00 89 1014.4
20260902091503 57 0 0.0 0.0 0.00 0.00 0.00 89 1014.4
20260902091003 57 213 0.0 0.9 0.00 0.00 0.00 89 1014.4
20260902090503 57 213 0.0 0.9 0.00 0.00 0.00 89 1014.4
20260902090003 57 213 0.0 0.9 0.00 0.00 0.00 89 1014.4
20260902085503 57 213 0.0 0.9 0.00 0.00 0.00 89 1014.4
20260902085002 57 0 0.0 0.0 0.00 0.00 0.00 89 1014.4
20260902084503 57 0 0.0 0.0 0.00 0.00 0.00 89 1014.4
20260902084003 57 0 0.0 0.0 0.00 0.00 0.00 89 1014.4
20260902083523 57 213 0.0 0.9 0.00 0.00 0.00 89 1014.4
20260902083003 57 213 0.0 0.9 0.00 0.00 0.00 89 1014.4
20260902082502 57 0 0.0 0.0 0.00 0.00 0.00 89 1014.4
20260902082002 57 212 0.0 0.9 0.00 0.00 0.00 89 1014.4
20260902081503 57 205 0.0 1.7 0.00 0.00 0.00 90 1014.4
20260902081002 57 189 0.0 1.7 0.00 0.00 0.00 90 1014.4
20260902080502 57 170 0.0 1.7 0.00 0.00 0.00 90 1014.4
20260902080024 57 156 0.0 0.9 0.00 0.00 0.00 90 1014.4
20260902075503 57 156 0.0 1.7 0.00 0.00 0.00 89 1014.4
20260902075003 57 159 0.0 2.6 0.00 0.00 0.00 89 1014.4
20260902074524 57 177 0.0 2.6 0.00 0.00 0.00 89 1014.4
20260902074024 57 194 0.0 1.7 0.00 0.00 0.00 89 1014.4
20260902073503 57 195 0.0 1.7 0.00 0.00 0.00 89 1014.4
20260902073003 57 195 0.9 2.6 0.00 0.00 0.00 89 1014.4
20260902072502 57 197 0.9 2.6 0.00 0.00 0.00 89 1014.4
20260902072003 57 197 0.0 1.7 0.00 0.00 0.00 89 1014.4
20260902071502 57 198 0.0 0.9 0.00 0.00 0.00 89 1014.4
20260902071003 57 198 0.0 0.9 0.00 0.00 0.00 88 1014.4
20260902070524 57 198 0.0 0.9 0.00 0.00 0.00 88 1014.4
20260902070007 58 0 0.0 0.0 0.00 0.00 0.00 88 1014.4
20260902065502 58 0 0.0 0.0 0.00 0.00 0.00 88 1014.4
20260902065002 58 0 0.0 0.0 0.00 0.00 0.00 88 1014.4
20260902064503 58 0 0.0 0.0 0.00 0.00 0.00 88 1014.4
20260902064002 58 0 0.0 0.0 0.00 0.00 0.00 88 1014.4
20260902063503 58 0 0.0 0.0 0.00 0.00 0.00 88 1014.4
20260902063024 58 0 0.0 0.0 0.00 0.00 0.00 88 1014.4
20260902062502 58 198 0.0 0.9 0.00 0.00 0.00 88 1014.4
20260902062002 58 198 0.0 0.9 0.00 0.00 0.00 87 1014.4
20260902061502 58 0 0.0 0.0 0.00 0.00 0.00 87 1014.4
20260902061024 58 198 0.0 0.9 0.00 0.00 0.00 87 1014.4
20260902060503 58 198 0.0 1.7 0.00 0.00 0.00 87 1014.4
20260902060003 58 198 0.0 1.7 0.00 0.00 0.00 87 1014.4
20260902055503 58 0 0.0 0.0 0.00 0.00 0.00 87 1014.4
20260902055003 58 200 0.9 2.6 0.00 0.00 0.00 87 1014.4
20260902054524 58 201 0.9 2.6 0.00 0.00 0.00 87 1014.4
20260902054003 58 214 0.9 2.6 0.00 0.00 0.00 86 1014.4
20260902053503 58 222 0.9 2.6 0.00 0.00 0.00 86 1014.4
20260902053003 59 246 0.0 2.6 0.00 0.00 0.00 86 1014.4
20260902052503 59 251 0.0 1.7 0.00 0.00 0.00 86 1014.4
20260902052003 59 251 0.0 1.7 0.00 0.00 0.00 86 1014.4
20260902051503 59 252 0.0 3.5 0.00 0.00 0.00 86 1014.4
20260902051003 59 252 0.0 3.5 0.00 0.00 0.00 85 1014.4
20260902050502 59 250 0.0 0.9 0.00 0.00 0.00 85 1014.4
20260902050004 59 250 0.0 0.9 0.00 0.00 0.00 85 1014.4
20260902045503 59 250 0.0 0.9 0.00 0.00 0.00 85 1014.4
20260902045003 59 250 0.0 0.9 0.00 0.00 0.00 85 1014.4
20260902044503 59 250 0.0 0.9 0.00 0.00 0.00 85 1014.4
20260902044002 59 251 0.0 0.9 0.00 0.00 0.00 85 1014.4
20260902043503 59 254 0.0 1.7 0.00 0.00 0.00 85 1014.4
20260902043024 59 255 0.0 1.7 0.00 0.00 0.00 84 1014.4
20260902042524 59 255 0.0 0.9 0.00 0.00 0.00 85 1014.4
20260902042003 59 255 0.0 0.9 0.00 0.00 0.00 84 1014.4
20260902041524 59 255 0.9 2.6 0.00 0.00 0.00 84 1014.4
20260902041024 59 253 1.7 4.3 0.00 0.00 0.00 84 1014.4
20260902040503 59 249 1.7 4.3 0.00 0.00 0.00 84 1014.4
20260902040003 59 246 1.7 3.5 0.00 0.00 0.00 84 1014.4
20260902035503 59 249 1.7 6.1 0.00 0.00 0.00 83 1014.4
20260902035024 59 249 1.7 6.1 0.00 0.00 0.00 83 1014.4
20260902034502 59 245 1.7 4.3 0.00 0.00 0.00 82 1014.4
20260902034003 60 249 1.7 7.0 0.00 0.00 0.00 82 1014.4
20260902033503 60 259 1.7 7.0 0.00 0.00 0.00 82 1014.4
20260902033003 60 254 1.7 6.1 0.00 0.00 0.00 81 1014.4
20260902032503 60 249 1.7 6.1 0.00 0.00 0.00 81 1014.4
20260902032003 60 249 2.6 6.1 0.00 0.00 0.00 80 1014.4
20260902031503 60 251 2.6 6.1 0.00 0.00 0.00 80 1014.4
20260902031003 60 250 2.6 7.8 0.00 0.00 0.00 79 1014.4
20260902030503 60 253 2.6 7.8 0.00 0.00 0.00 79 1014.4
20260902030003 60 261 2.6 7.0 0.00 0.00 0.00 78 1014.4
20260902025503 60 259 3.5 8.7 0.00 0.00 0.00 78 1014.4
20260902025024 61 256 3.5 8.7 0.00 0.00 0.00 77 1014.4
20260902024503 61 255 3.5 7.8 0.00 0.00 0.00 76 1014.4
20260902024024 61 258 3.5 7.8 0.00 0.00 0.00 75 1014.4
20260902023503 61 266 2.6 7.8 0.00 0.00 0.00 74 1014.4
20260902023003 62 266 1.7 6.1 0.00 0.00 0.00 73 1014.4
20260902022503 62 261 1.7 7.0 0.00 0.00 0.00 72 1014.4
20260902022003 62 259 2.6 10.4 0.00 0.00 0.00 72 1014.4
20260902021503 62 261 3.5 10.4 0.00 0.00 0.00 71 1014.4
20260902021024 62 264 2.6 9.6 0.00 0.00 0.00 71 1014.4
20260902020503 62 256 3.5 8.7 0.00 0.00 0.00 70 1014.4
20260902020003 63 256 3.5 8.7 0.00 0.00 0.00 70 1014.4
20260902015503 63 261 2.6 7.8 0.00 0.00 0.00 69 1014.4
20260902015003 63 250 2.6 8.7 0.00 0.00 0.00 69 1014.4
20260902014503 64 254 3.5 8.7 0.00 0.00 0.00 69 1014.4
20260902014003 64 268 3.5 8.7 0.00 0.00 0.00 68 1014.4
20260902013503 64 262 3.5 8.7 0.00 0.00 0.00 67 1014.4
20260902013003 65 256 3.5 9.6 0.00 0.00 0.00 67 1014.4
20260902012524 65 258 3.5 9.6 0.00 0.00 0.00 66 1014.4
20260902012003 66 266 3.5 8.7 0.00 0.00 0.00 65 1014.4
20260902011503 66 269 2.6 7.8 0.00 0.00 0.00 65 1014.4
20260902011003 66 273 3.5 10.4 0.00 0.00 0.00 65 1014.4
20260902010503 66 271 2.6 10.4 0.00 0.00 0.00 64 1014.4
20260902010003 66 265 2.6 7.8 0.00 0.00 0.00 63 1014.4
20260902005503 67 279 2.6 7.8 0.00 0.00 0.00 63 1014.4
20260902005003 67 290 2.6 9.6 0.00 0.00 0.00 62 1014.4
20260902004503 67 272 2.6 9.6 0.00 0.00 0.00 63 1014.4
20260902004003 67 267 3.5 8.7 0.00 0.00 0.00 63 1014.4
20260902003503 67 261 3.5 7.8 0.00 0.00 0.00 63 1014.4
20260902003003 67 260 4.3 10.4 0.00 0.00 0.00 62 1014.4
20260902002503 68 269 2.6 10.4 0.00 0.00 0.00 60 1014.4
20260902002003 68 289 1.7 9.6 0.00 0.00 0.00 60 1014.4
20260902001503 68 290 2.6 9.6 0.00 0.00 0.00 60 1014.4
20260902001024 68 279 2.6 9.6 0.00 0.00 0.00 59 1014.4
20260902000524 68 273 2.6 10.4 0.00 0.00 0.00 61 1014.4
20260902000003 68 266 3.5 10.4 0.00 0.00 0.00 62 1014.4
20260901235503 68 255 2.6 8.7 0.00 0.00 0.00 62 1014.4